This is the latest recevied weather packets stored in our database for station/object K8JMX-13. If no packets are shown the sender has not sent any weather packets the latest 1 day(s).
| Time | Temp. | Humidity | Pressure | Rain* | Wind** | Luminosity | Snow |
|---|---|---|---|---|---|---|---|
| 1778027371 | 15.56° C | 91% | 1006.5 hPa | 0 mm | 0.45 m/s, 165° | 0 W/m² | - |
| 1778027067 | 15.56° C | 91% | 1006.5 hPa | 0 mm | 0.45 m/s, 162° | 0 W/m² | - |
| 1778026762 | 15.56° C | 91% | 1006.3 hPa | 0 mm | 0 m/s | 1 W/m² | - |
| 1778026460 | 15.56° C | 91% | 1006.4 hPa | 0 mm | 0.45 m/s, 116° | 1 W/m² | - |
| 1778026157 | 15.56° C | 91% | 1006.4 hPa | 1.27 mm | 0.45 m/s, 115° | 2 W/m² | - |
| 1778025855 | 15.56° C | 91% | 1006.5 hPa | 3.05 mm | 0.89 m/s, 166° | 2 W/m² | - |
| 1778025551 | 15.56° C | 91% | 1006.4 hPa | 1.78 mm | 0.45 m/s, 97° | 2 W/m² | - |
| 1778025249 | 15.56° C | 91% | 1006.3 hPa | 0 mm | 0 m/s | 3 W/m² | - |
| 1778024946 | 15.56° C | 91% | 1006.4 hPa | 0 mm | 0 m/s | 3 W/m² | - |
| 1778024643 | 15.56° C | 91% | 1006.5 hPa | 0 mm | 0 m/s | 4 W/m² | - |
| 1778024340 | 15.56° C | 91% | 1006.4 hPa | 0 mm | 0 m/s | 4 W/m² | - |
| 1778024038 | 15.56° C | 91% | 1006.4 hPa | 0 mm | 0 m/s | 7 W/m² | - |
| 1778023735 | 15.56° C | 91% | 1006.5 hPa | 0 mm | 0 m/s | 5 W/m² | - |
| 1778023433 | 15.56° C | 90% | 1006.6 hPa | 1.27 mm | 0 m/s | 7 W/m² | - |
| 1778023129 | 15.56° C | 90% | 1006.6 hPa | 1.27 mm | 0 m/s | 15 W/m² | - |
| 1778022827 | 15.56° C | 90% | 1006.8 hPa | 0 mm | 0 m/s | 21 W/m² | - |
| 1778022525 | 15.56° C | 90% | 1006.7 hPa | 0 mm | 0 m/s | 15 W/m² | - |
| 1778022222 | 15.56° C | 90% | 1006.7 hPa | 0 mm | 0 m/s | 13 W/m² | - |
| 1778021918 | 15.56° C | 90% | 1006.9 hPa | 0 mm | 0 m/s | 9 W/m² | - |
| 1778021616 | 15.56° C | 90% | 1006.8 hPa | 0 mm | 0 m/s | 8 W/m² | - |
| 1778021310 | 15.56° C | 90% | 1006.8 hPa | 0 mm | 0 m/s | 10 W/m² | - |
| 1778021009 | 15.56° C | 89% | 1007 hPa | 0 mm | 0 m/s | 10 W/m² | - |
| 1778020706 | 15.56° C | 89% | 1006.9 hPa | 1.78 mm | 0.89 m/s, 221° | 26 W/m² | - |
| 1778020403 | 15.56° C | 89% | 1006.9 hPa | 1.78 mm | 0.89 m/s, 244° | 17 W/m² | - |
| 1778020098 | 15.56° C | 89% | 1007 hPa | 1.27 mm | 0.45 m/s, 73° | 18 W/m² | - |
* Rain latest hour (hover to see other rain measurements)
** Current wind speed in m/s (hover to see current wind gust speed)